Regional Weather Roundup
Issued by NWS Newport/Morehead, NC

Current Version | Previous Version | Graphics & Text | Print | Product List | Glossary Off
Versions: 1 2 3 4 5 6 7 8 9 10 11 12 13 14 15 16 17 18 19 20 21 22 23 24 25 26 27 28 29 30 31 32 33 34 35 36 37 38 39 40 41 42 43 44 45 46 47 48 49 50

699
ASUS42 KMHX 290125
RWRMHX
WEATHER ROUNDUP FOR EASTERN NORTH CAROLINA
NATIONAL WEATHER SERVICE NEWPORT/MOREHEAD CITY NC
900 PM EDT FRI APR 28 2017

NOTE: "FAIR" INDICATES FEW OR NO CLOUDS BELOW 12,000 FEET
WITH NO SIGNIFICANT WEATHER AND/OR OBSTRUCTIONS TO VISIBILITY

NCZ015>017-031-032-045>047-102-103-290200-
NORTH COAST

CITY           SKY/WX    TMP DP  RH WIND       PRES   REMARKS
EDENTON        CLEAR     80  73  81 S10       30.09R
ELIZABETH CITY CLEAR     78  74  87 S10       30.07R
KITTY HAWK     CLEAR     75  73  92 CALM      30.09S
MANTEO         CLEAR     74  72  93 SW14      30.11R

$$

NCZ045>047-081-094-103-104-290200-
CENTRAL COAST

CITY           SKY/WX    TMP DP  RH WIND       PRES   REMARKS
FRISCO         CLEAR     75  72  90 SW14      30.14R FOG

$$

NCZ095-097-098-100-101-290200-
SOUTHERN COAST

CITY           SKY/WX    TMP DP  RH WIND       PRES   REMARKS
BEAUFORT       CLEAR     74  74 100 S9        30.14R
CEDAR ISLAND   NOT AVBL
JACKSONVILLE   MOCLDY    76  75  97 S10       30.12R
PINEY ISLAND   CLEAR    N/A N/A N/A S13G21    30.13R
WILMINGTON     CLOUDY    77  74  90 S10G20    30.13R


$$

NCZ011>013-027>030-043-044-078>080-089-090>093-098-290200-
COASTAL PLAIN

CITY           SKY/WX    TMP DP  RH WIND       PRES   REMARKS
AHOSKIE          N/A     75  69  82 S3        30.07R
CLINTON        CLEAR     79  75  87 S7        30.09R
ELIZABETHTOWN  PTCLDY    78  74  88 S8        30.10R
GOLDSBORO      CLEAR     80  77  91 S9        30.07R
GREENVILLE     CLEAR     81  73  78 S12       30.09R
HAVELOCK       NOT AVBL
KENANSVILLE    CLEAR     77  73  88 S5        30.10R
KINSTON        CLEAR     79  72  78 S8        30.10R
NEW BERN       MOCLDY    76  74  93 S9        30.12R
RICHLANDS      PTCLDY    76  73  91 S9        30.12R
ROCKY MOUNT    CLEAR     80  71  74 S5        30.06R
WASHINGTON     CLEAR     77  73  87 S9        30.10R
WHITEVILLE     CLEAR     77  74  90 S8        30.11R

$$

AMZ130-135-150-152-154-156-158-170-250-252-270-ANZ085-086-088-633-658-670-290200-
MARINE OBSERVATIONS

STATION/POSITION TIME  TEMP    WIND        PRES    WAVE   SWELL
                       AIR SEA DIR/SP/G            HT/PER HT/PER
                 (UTC) (F)     (DEG/KT/KT) (MB)    (FT/S) (FT/S)
CHESAPEAKE LIGHT NOT AVBL
64 E VA BEACH    0050   62 58  200/ 14/ 16 1019.7    4/ 8   3/ 8
DUCK             0054   76 57  180/ 13/ 15 1018.4
2 E DUCK         0100      62                N/A     3/10   2/11
OREGON INLET     0048   74 76  190/ 17/ 20 1019.7
13E OREGON INLT  0048      62                N/A     4/ 6   2/ 8
HATTERAS CG      0054   75 73  190/  7/ 12 1020.4
DIAMOND BUOY     0050   77 76  210/ 16/ 17 1020.8    4/ 8   3/ 8
CAPE LOOKOUT     0100   74     190/  9/ 11 1020.5
BEAUFORT LAB     0054   74 71  200/  9/ 12 1019.9
30 SE NEW RVR IN 0108   73     210/ 12/ 14 1020.8
30 SE NEW RVR IN 0043      73                N/A     4/ 8
27 SE WRIGHTSVLE 0108   74 73  190/ 10/ 14 1020.1
5 SE WRIGHTSVLE  0108   73 70  190/ 10/ 14 1020.3
225 S CAPE HAT   0050   75 76  150/  8/ 10 1023.9    4/ 8   3/ 8
41 SE CHARLESTON 0100   75 74  170/ 10/ 12 1020.3

$$




USA.gov is the U.S. government's official web portal to all federal, state and local government web resources and services.